| time (UTC) | temp F | wind direction | speed MPH | gust MPH | rain 1hr in | rain 24hr in | rain mn in | humidity % | barometer mb |
| 20260504030505 | 59 | 227 | 0.0 | 2.0 | 0.00 | 0.00 | 0.00 | 60 | 1006.3 |
| 20260504030023 | 59 | 227 | 0.0 | 2.0 | 0.00 | 0.00 | 0.00 | 59 | 1006.2 |
| 20260504025505 | 59 | 230 | 0.0 | 3.0 | 0.00 | 0.00 | 0.00 | 59 | 1006.2 |
| 20260504025006 | 60 | 230 | 0.0 | 3.0 | 0.00 | 0.00 | 0.00 | 59 | 1006.2 |
| 20260504024505 | 60 | 230 | 0.0 | 2.0 | 0.00 | 0.00 | 0.00 | 58 | 1006.3 |
| 20260504024012 | 60 | 229 | 0.0 | 6.0 | 0.00 | 0.00 | 0.00 | 58 | 1006.2 |
| 20260504023510 | 60 | 227 | 0.0 | 6.0 | 0.00 | 0.00 | 0.00 | 57 | 1006.1 |
| 20260504023006 | 60 | 211 | 0.0 | 2.0 | 0.00 | 0.00 | 0.00 | 57 | 1006.2 |
| 20260504022006 | 61 | 211 | 0.0 | 2.0 | 0.00 | 0.00 | 0.00 | 56 | 1006.2 |
| 20260504021505 | 61 | 211 | 0.0 | 3.0 | 0.00 | 0.00 | 0.00 | 57 | 1006.1 |
| 20260504021010 | 61 | 211 | 0.0 | 3.0 | 0.00 | 0.00 | 0.00 | 56 | 1006.1 |
| 20260504020011 | 61 | 228 | 0.0 | 2.0 | 0.00 | 0.00 | 0.00 | 55 | 1005.9 |
| 20260504015006 | 62 | 229 | 1.0 | 5.0 | 0.00 | 0.00 | 0.00 | 54 | 1005.8 |
| 20260504014506 | 62 | 234 | 1.0 | 7.0 | 0.00 | 0.00 | 0.00 | 54 | 1005.8 |
| 20260504014019 | 62 | 229 | 1.0 | 7.0 | 0.00 | 0.00 | 0.00 | 53 | 1005.7 |
| 20260504013505 | 62 | 253 | 0.0 | 5.0 | 0.00 | 0.00 | 0.00 | 54 | 1005.7 |
| 20260504013006 | 62 | 229 | 1.0 | 4.0 | 0.00 | 0.00 | 0.00 | 54 | 1005.6 |
| 20260504012509 | 63 | 230 | 1.0 | 4.0 | 0.00 | 0.00 | 0.00 | 53 | 1005.6 |
| 20260504012006 | 63 | 263 | 1.0 | 5.0 | 0.00 | 0.00 | 0.00 | 52 | 1005.7 |
| 20260504011012 | 63 | 226 | 1.0 | 4.0 | 0.00 | 0.00 | 0.00 | 52 | 1005.6 |
| 20260504010506 | 64 | 248 | 1.0 | 8.0 | 0.00 | 0.00 | 0.00 | 51 | 1005.6 |
| 20260504005506 | 64 | 205 | 1.0 | 5.0 | 0.00 | 0.00 | 0.00 | 49 | 1005.5 |
| 20260504005006 | 65 | 200 | 0.0 | 2.0 | 0.00 | 0.00 | 0.00 | 49 | 1005.5 |
| 20260504004505 | 65 | 198 | 0.0 | 6.0 | 0.00 | 0.00 | 0.00 | 48 | 1005.5 |
| 20260504004027 | 65 | 225 | 1.0 | 6.0 | 0.00 | 0.00 | 0.00 | 47 | 1005.6 |
| 20260504003508 | 66 | 213 | 1.0 | 5.0 | 0.00 | 0.00 | 0.00 | 47 | 1005.6 |
| 20260504003009 | 66 | 240 | 1.0 | 3.0 | 0.00 | 0.00 | 0.00 | 46 | 1005.6 |
| 20260504002508 | 66 | 219 | 1.0 | 5.0 | 0.00 | 0.00 | 0.00 | 46 | 1005.5 |
| 20260504001507 | 67 | 214 | 2.0 | 6.0 | 0.00 | 0.00 | 0.00 | 47 | 1005.6 |
| 20260504001007 | 67 | 211 | 2.0 | 7.0 | 0.00 | 0.00 | 0.00 | 45 | 1005.6 |
| 20260504000009 | 67 | 223 | 2.0 | 7.0 | 0.00 | 0.00 | 0.00 | 44 | 1005.6 |
| 20260503235006 | 67 | 229 | 2.0 | 8.0 | 0.00 | 0.00 | 0.00 | 44 | 1005.6 |
| 20260503234013 | 68 | 202 | 2.0 | 8.0 | 0.00 | 0.00 | 0.00 | 44 | 1005.6 |
| 20260503233506 | 68 | 277 | 2.0 | 8.0 | 0.00 | 0.00 | 0.00 | 43 | 1005.6 |
| 20260503233009 | 68 | 292 | 3.0 | 7.0 | 0.00 | 0.00 | 0.00 | 42 | 1005.6 |
| 20260503232009 | 68 | 224 | 3.0 | 11.0 | 0.00 | 0.00 | 0.00 | 43 | 1005.5 |
| 20260503231506 | 68 | 196 | 3.0 | 10.0 | 0.00 | 0.00 | 0.00 | 42 | 1005.5 |
| 20260503231009 | 69 | 220 | 3.0 | 10.0 | 0.00 | 0.00 | 0.00 | 43 | 1005.6 |
| 20260503230508 | 69 | 211 | 3.0 | 11.0 | 0.00 | 0.00 | 0.00 | 42 | 1005.6 |
| 20260503230022 | 69 | 237 | 3.0 | 11.0 | 0.00 | 0.00 | 0.00 | 42 | 1005.7 |
| 20260503225507 | 69 | 285 | 3.0 | 8.0 | 0.00 | 0.00 | 0.00 | 40 | 1005.7 |
| 20260503225012 | 70 | 227 | 3.0 | 8.0 | 0.00 | 0.00 | 0.00 | 39 | 1005.8 |
| 20260503224507 | 70 | 261 | 3.0 | 12.0 | 0.00 | 0.00 | 0.00 | 40 | 1005.7 |
| 20260503224006 | 70 | 240 | 2.0 | 12.0 | 0.00 | 0.00 | 0.00 | 41 | 1005.9 |
| 20260503223508 | 71 | 198 | 2.0 | 10.0 | 0.00 | 0.00 | 0.00 | 39 | 1005.9 |
| 20260503223009 | 70 | 242 | 1.0 | 8.0 | 0.00 | 0.00 | 0.00 | 41 | 1005.9 |
| 20260503222505 | 70 | 215 | 1.0 | 9.0 | 0.00 | 0.00 | 0.00 | 42 | 1006.0 |
| 20260503222008 | 70 | 219 | 2.0 | 12.0 | 0.00 | 0.00 | 0.00 | 42 | 1006.0 |
| 20260503221513 | 69 | 209 | 2.0 | 12.0 | 0.00 | 0.00 | 0.00 | 42 | 1006.1 |
| 20260503221012 | 69 | 225 | 2.0 | 10.0 | 0.00 | 0.00 | 0.00 | 44 | 1006.1 |
| 20260503220505 | 68 | 206 | 2.0 | 6.0 | 0.00 | 0.00 | 0.00 | 44 | 1006.2 |
| 20260503220008 | 68 | 237 | 2.0 | 8.0 | 0.00 | 0.00 | 0.00 | 42 | 1006.3 |
| 20260503215506 | 68 | 206 | 3.0 | 13.0 | 0.00 | 0.00 | 0.00 | 43 | 1006.4 |
| 20260503215005 | 69 | 217 | 3.0 | 13.0 | 0.00 | 0.00 | 0.00 | 41 | 1006.4 |
| 20260503214510 | 69 | 186 | 3.0 | 9.0 | 0.00 | 0.00 | 0.00 | 42 | 1006.3 |
| 20260503214008 | 69 | 231 | 3.0 | 10.0 | 0.00 | 0.00 | 0.00 | 41 | 1006.4 |
| 20260503213505 | 68 | 219 | 2.0 | 18.0 | 0.00 | 0.00 | 0.00 | 43 | 1006.5 |
| 20260503212505 | 67 | 202 | 2.0 | 14.0 | 0.00 | 0.00 | 0.00 | 43 | 1006.8 |
| 20260503212007 | 67 | 242 | 2.0 | 10.0 | 0.00 | 0.00 | 0.00 | 45 | 1006.8 |
| 20260503211510 | 67 | 223 | 3.0 | 10.0 | 0.00 | 0.00 | 0.00 | 43 | 1006.9 |
| 20260503211007 | 67 | 250 | 3.0 | 11.0 | 0.00 | 0.00 | 0.00 | 42 | 1007.1 |
| 20260503210010 | 67 | 217 | 3.0 | 12.0 | 0.00 | 0.00 | 0.00 | 41 | 1007.1 |
| 20260503205504 | 68 | 288 | 4.0 | 15.0 | 0.00 | 0.00 | 0.00 | 39 | 1007.3 |
| 20260503205009 | 68 | 225 | 4.0 | 15.0 | 0.00 | 0.00 | 0.00 | 38 | 1007.4 |
| 20260503204508 | 68 | 238 | 4.0 | 12.0 | 0.00 | 0.00 | 0.00 | 39 | 1007.4 |
| 20260503204006 | 68 | 177 | 4.0 | 12.0 | 0.00 | 0.00 | 0.00 | 38 | 1007.6 |
| 20260503203507 | 69 | 224 | 4.0 | 14.0 | 0.00 | 0.00 | 0.00 | 38 | 1007.7 |
| 20260503203008 | 69 | 213 | 4.0 | 14.0 | 0.00 | 0.00 | 0.00 | 39 | 1007.8 |
| 20260503202509 | 68 | 236 | 4.0 | 11.0 | 0.00 | 0.00 | 0.00 | 40 | 1007.8 |
| 20260503201507 | 68 | 229 | 4.0 | 12.0 | 0.00 | 0.00 | 0.00 | 41 | 1008.0 |
| 20260503201005 | 67 | 226 | 4.0 | 13.0 | 0.00 | 0.00 | 0.00 | 42 | 1008.1 |
| 20260503200507 | 67 | 174 | 4.0 | 11.0 | 0.00 | 0.00 | 0.00 | 40 | 1008.0 |
| 20260503194009 | 64 | 232 | 2.0 | 11.0 | 0.00 | 0.00 | 0.00 | 51 | 1008.4 |
| 20260503193506 | 64 | 171 | 2.0 | 10.0 | 0.00 | 0.00 | 0.00 | 51 | 1008.6 |
| 20260503192505 | 63 | 156 | 2.0 | 11.0 | 0.00 | 0.00 | 0.00 | 51 | 1008.5 |
| 20260503192012 | 63 | 206 | 2.0 | 11.0 | 0.00 | 0.00 | 0.00 | 57 | 1008.7 |
| 20260503191510 | 62 | 205 | 2.0 | 11.0 | 0.00 | 0.00 | 0.00 | 55 | 1008.8 |
| 20260503191006 | 61 | 240 | 3.0 | 11.0 | 0.00 | 0.00 | 0.00 | 57 | 1008.8 |
| 20260503185507 | 60 | 169 | 2.0 | 10.0 | 0.00 | 0.00 | 0.00 | 57 | 1009.0 |
| 20260503183508 | 58 | 190 | 2.0 | 7.0 | 0.00 | 0.00 | 0.00 | 63 | 1009.4 |
| 20260503183008 | 57 | 170 | 2.0 | 7.0 | 0.00 | 0.00 | 0.00 | 65 | 1009.5 |
| 20260503182505 | 56 | 224 | 2.0 | 10.0 | 0.00 | 0.00 | 0.00 | 67 | 1009.5 |
| 20260503181505 | 55 | 247 | 1.0 | 6.0 | 0.00 | 0.00 | 0.00 | 68 | 1009.7 |
| 20260503175505 | 53 | 215 | 0.0 | 3.0 | 0.00 | 0.00 | 0.00 | 71 | 1010.3 |
| 20260503174504 | 52 | 227 | 1.0 | 3.0 | 0.00 | 0.00 | 0.00 | 73 | 1010.8 |
| 20260503174008 | 52 | 313 | 1.0 | 3.0 | 0.00 | 0.00 | 0.00 | 76 | 1011.1 |
| 20260503173506 | 52 | 198 | 1.0 | 3.0 | 0.00 | 0.00 | 0.00 | 76 | 1011.4 |
| 20260503173010 | 52 | 221 | 1.0 | 4.0 | 0.00 | 0.00 | 0.00 | 76 | 1011.3 |
| 20260503172012 | 52 | 198 | 1.0 | 3.0 | 0.00 | 0.00 | 0.00 | 78 | 1011.6 |
| 20260503171504 | 51 | 242 | 1.0 | 6.0 | 0.00 | 0.00 | 0.00 | 77 | 1011.9 |
| 20260503171007 | 52 | 234 | 1.0 | 6.0 | 0.00 | 0.00 | 0.00 | 75 | 1011.9 |
| 20260503170506 | 51 | 91 | 1.0 | 5.0 | 0.00 | 0.00 | 0.00 | 74 | 1012.0 |
| 20260503151006 | 53 | 269 | 2.0 | 8.0 | 0.00 | 0.00 | 0.00 | 58 | 1013.2 |
| 20260503150504 | 53 | 275 | 2.0 | 7.0 | 0.00 | 0.00 | 0.00 | 59 | 1013.2 |
| 20260503131005 | 48 | 227 | 1.0 | 8.0 | 0.00 | 0.00 | 0.00 | 64 | 1013.6 |
| 20260503130506 | 47 | 243 | 2.0 | 8.0 | 0.00 | 0.00 | 0.00 | 64 | 1013.7 |
| 20260503110504 | 45 | 234 | 1.0 | 9.0 | 0.00 | 0.00 | 0.00 | 65 | 1013.7 |
| 20260503090504 | 43 | 231 | 0.0 | 4.0 | 0.00 | 0.00 | 0.00 | 63 | 1014.1 |
| 20260503081503 | 43 | 210 | 0.0 | 0.0 | 0.00 | 0.00 | 0.00 | 61 | 1014.3 |
| 20260503081004 | 43 | 209 | 0.0 | 0.0 | 0.00 | 0.00 | 0.00 | 61 | 1014.3 |
| 20260503080509 | 43 | 209 | 0.0 | 0.0 | 0.00 | 0.00 | 0.00 | 60 | 1014.4 |
| 20260503072504 | 43 | 249 | 0.0 | 0.0 | 0.00 | 0.00 | 0.00 | 61 | 1014.4 |
| 20260503072007 | 43 | 249 | 0.0 | 0.0 | 0.00 | 0.00 | 0.00 | 61 | 1014.4 |
| 20260503071503 | 43 | 245 | 0.0 | 0.0 | 0.00 | 0.00 | 0.00 | 60 | 1014.4 |
| 20260503071007 | 43 | 245 | 0.0 | 0.0 | 0.00 | 0.00 | 0.00 | 61 | 1014.4 |
| 20260503070503 | 43 | 245 | 0.0 | 0.0 | 0.00 | 0.00 | 0.00 | 61 | 1014.4 |
| 20260503055007 | 44 | 242 | 0.0 | 0.0 | 0.00 | 0.00 | 0.00 | 60 | 1015.0 |
| 20260503054507 | 44 | 242 | 0.0 | 0.0 | 0.00 | 0.00 | 0.00 | 58 | 1015.0 |
| 20260503054007 | 44 | 242 | 0.0 | 0.0 | 0.00 | 0.00 | 0.00 | 59 | 1015.0 |
| 20260503053506 | 44 | 242 | 0.0 | 0.0 | 0.00 | 0.00 | 0.00 | 58 | 1015.1 |
| 20260503052006 | 44 | 244 | 0.0 | 0.0 | 0.00 | 0.00 | 0.00 | 58 | 1015.3 |
| 20260503051007 | 44 | 244 | 0.0 | 0.0 | 0.00 | 0.00 | 0.00 | 59 | 1015.4 |
| 20260503050511 | 44 | 244 | 0.0 | 0.0 | 0.00 | 0.00 | 0.00 | 58 | 1015.3 |
| 20260503050023 | 45 | 244 | 0.0 | 0.0 | 0.00 | 0.00 | 0.00 | 58 | 1015.4 |
| 20260503045509 | 45 | 244 | 0.0 | 0.0 | 0.00 | 0.00 | 0.00 | 58 | 1015.5 |
| 20260503045008 | 45 | 244 | 0.0 | 0.0 | 0.00 | 0.00 | 0.00 | 58 | 1015.5 |
| 20260503044505 | 45 | 244 | 0.0 | 0.0 | 0.00 | 0.00 | 0.00 | 58 | 1015.5 |
| 20260503044009 | 45 | 244 | 0.0 | 0.0 | 0.00 | 0.00 | 0.00 | 58 | 1015.5 |
| 20260503043508 | 45 | 244 | 0.0 | 0.0 | 0.00 | 0.00 | 0.00 | 58 | 1015.4 |
| 20260503043006 | 45 | 244 | 0.0 | 0.0 | 0.00 | 0.00 | 0.00 | 58 | 1015.5 |
| 20260503042506 | 45 | 244 | 0.0 | 0.0 | 0.00 | 0.00 | 0.00 | 59 | 1015.5 |
| 20260503042010 | 45 | 244 | 0.0 | 0.0 | 0.00 | 0.00 | 0.00 | 58 | 1015.6 |
| 20260503041507 | 45 | 244 | 0.0 | 0.0 | 0.00 | 0.00 | 0.00 | 59 | 1015.5 |
| 20260503040506 | 45 | 245 | 0.0 | 0.0 | 0.00 | 0.00 | 0.00 | 58 | 1015.7 |
| 20260503040009 | 45 | 250 | 0.0 | 0.0 | 0.00 | 0.00 | 0.00 | 58 | 1015.8 |
| 20260503035508 | 45 | 250 | 0.0 | 0.0 | 0.00 | 0.00 | 0.00 | 59 | 1015.7 |
| 20260503035007 | 45 | 250 | 0.0 | 0.0 | 0.00 | 0.00 | 0.00 | 59 | 1015.8 |
| 20260503034506 | 45 | 250 | 0.0 | 0.0 | 0.00 | 0.00 | 0.00 | 59 | 1015.8 |
| 20260503034010 | 45 | 250 | 0.0 | 0.0 | 0.00 | 0.00 | 0.00 | 59 | 1015.7 |
| 20260503033006 | 45 | 250 | 0.0 | 0.0 | 0.00 | 0.00 | 0.00 | 58 | 1015.8 |
| 20260503032505 | 45 | 250 | 0.0 | 0.0 | 0.00 | 0.00 | 0.00 | 59 | 1015.8 |
| 20260503032011 | 45 | 250 | 0.0 | 0.0 | 0.00 | 0.00 | 0.00 | 58 | 1015.7 |
| 20260503031506 | 45 | 250 | 0.0 | 0.0 | 0.00 | 0.00 | 0.00 | 58 | 1015.8 |
| 20260503031007 | 45 | 250 | 0.0 | 0.0 | 0.00 | 0.00 | 0.00 | 58 | 1015.9 |